Location: Koussan�
(15.2012°N, 12.5548°W)
Time: 18:07:20
(UTC+00:00)

Meteor 2-10 Rocket - Pass Details

Date: 20 October 2020
Orbit: 734 x 885 km, 81.2° (Epoch: 01 December)

Event Time Altitude Azimuth Distance (km) Brightness Sun altitude
Rises 19:35:24 0° 171° (S) 3,443 6.9 -17.2°
Reaches altitude 10° 19:37:58 10° 165° (SSE) 2,490 6.1 -17.8°
Maximum altitude 19:43:19 45° 94° (E) 1,131 3.9 -19.1°
Enters shadow 19:46:36 21° 32° (NNE) 1,755 5.0 -19.9°
